Location: Ammerl�gen
(47.2167°N, 9.6000°E)
Time: 02:55:18
(UTC+00:00)

ATLAS 5 CENTAUR R/B - Pass Details

Date: 21 April 2021
Orbit: 516 x 1141 km, 63.3° (Epoch: 02 May)

Event Time Altitude Azimuth Distance (km) Brightness Sun altitude
Rises 23:36:49 0° 322° (NW) 3,149 5.8 -30.5°
Reaches altitude 10° 23:39:08 10° 329° (NNW) 2,318 5.1 -30.4°
Maximum altitude 23:44:18 44° 42° (NE) 1,181 3.2 -30.3°
Enters shadow 23:46:48 30° 93° (E) 1,588 3.6 -30.3°
